Change the Weather History Date:

Monday, September 10, 2012

  Actual Average Record
Temperature  
Mean Temperature 82 °F -  
Max Temperature 89 °F 87 °F 96 °F (1997)
Min Temperature 76 °F 76 °F 71 °F (2013)
Cooling Degree Days 18    
Growing Degree Days 32 (Base 50)    
Moisture  
Dew Point 75 °F    
Average Humidity 79    
Maximum Humidity 94    
Minimum Humidity 68    
Precipitation  
Precipitation 0.03 in 0.52 in - ()
Sea Level Pressure  
Sea Level Pressure 29.87 in    
Wind  
Wind Speed 4 mph ()    
Max Wind Speed 13 mph    
Max Gust Speed -    
Visibility 6.1 miles    
Events Rain    
Averages and records for this station are not official NWS values.
T = Trace of Precipitation, MM = Missing Value Source: Averaged Metar Reports

Daily Weather History Graph

Daily Weather History Graph

Search for Another Location

Airport or City:

Trip Planner

Search our weather history database for the weather conditions in past years. The results will help you decide how hot, cold, wet, or windy it might be!

Date:

Astronomy

Sep. 10, 2012 Rise Set
Actual Time 6:17 AM ICT 6:29 PM ICT
Civil Twilight 5:56 AM ICT 6:50 PM ICT
Nautical Twilight 5:32 AM ICT 7:14 PM ICT
Astronomical Twilight 5:07 AM ICT 7:39 PM ICT
Moon 1:00 AM ICT (9/10) 1:49 PM ICT (9/10)
Length of Visible Light 12h 53m
Length of Day
12h 12m
Waning Crescent, 34% of the Moon is Illuminated
Sep 10
Waning Crescent
Sep 16
New
Sep 23
First Quarter
Sep 30
Full
Oct 8
Last Quarter

Hourly Weather History & Observations

Time (ICT) Temp. Heat Index Dew Point Humidity Pressure Visibility Wind Dir Wind Speed Gust Speed Precip Events Conditions
12:00 AM 77.0 °F - 75.2 °F 94% 29.89 in 6.2 mi Calm Calm - N/A   Scattered Clouds
12:30 AM 77.0 °F - 75.2 °F 94% 29.89 in 6.2 mi Calm Calm - N/A   Scattered Clouds
1:00 AM 78 °F - 76 °F 91% 29.87 in 6 mi Calm Calm - -   Scattered Clouds
1:00 AM 77.0 °F - 75.2 °F 94% 29.89 in 6.2 mi Calm Calm - N/A   Scattered Clouds
1:30 AM 77.0 °F - 75.2 °F 94% 29.86 in 6.2 mi Calm Calm - N/A   Scattered Clouds
2:00 AM 78.8 °F - 75.2 °F 89% 29.86 in 6.2 mi Calm Calm - N/A   Scattered Clouds
3:30 AM 78.8 °F - 75.2 °F 89% 29.86 in 6.2 mi NNW 3.5 mph - N/A   Scattered Clouds
5:00 AM 77.0 °F - 75.2 °F 94% 29.86 in 6.2 mi Calm Calm - N/A   Scattered Clouds
6:00 AM 77.0 °F - 73.4 °F 89% 29.86 in 6.2 mi Calm Calm - N/A   Scattered Clouds
6:30 AM 77.0 °F - 75.2 °F 94% 29.86 in 6.2 mi Calm Calm - N/A   Scattered Clouds
7:00 AM 80 °F - 77 °F 89% 29.86 in 6 mi Calm Calm - -   Scattered Clouds
7:00 AM 77.0 °F - 75.2 °F 94% 29.89 in 6.2 mi Calm Calm - N/A   Mostly Cloudy
7:30 AM 78.8 °F - 75.2 °F 89% 29.89 in 6.2 mi Calm Calm - N/A   Mostly Cloudy
8:00 AM 82.4 °F 89.5 °F 75.2 °F 79% 29.89 in 6.2 mi NNW 4.6 mph - N/A   Mostly Cloudy
8:30 AM 82.4 °F 89.5 °F 75.2 °F 79% 29.92 in 6.2 mi NW 4.6 mph - N/A   Mostly Cloudy
9:00 AM 82.4 °F 89.5 °F 75.2 °F 79% 29.92 in 6.2 mi NW 4.6 mph - N/A   Mostly Cloudy
9:30 AM 84.2 °F 92.3 °F 75.2 °F 74% 29.92 in 6.2 mi WNW 5.8 mph - N/A   Mostly Cloudy
10:00 AM 86.0 °F 95.1 °F 75.2 °F 70% 29.92 in 6.2 mi West 6.9 mph - N/A   Mostly Cloudy
10:30 AM 86.0 °F 96.9 °F 77.0 °F 74% 29.92 in 6.2 mi West 9.2 mph - N/A   Mostly Cloudy
11:00 AM 86.0 °F 95.1 °F 75.2 °F 70% 29.92 in 6.2 mi West 10.4 mph - N/A   Mostly Cloudy
11:30 AM 86.0 °F 95.1 °F 75.2 °F 70% 29.89 in 6.2 mi West 10.4 mph - N/A   Mostly Cloudy
12:00 PM 86.0 °F 95.1 °F 75.2 °F 70% 29.89 in 6.2 mi West 9.2 mph - N/A   Mostly Cloudy
12:30 PM 86.0 °F 95.1 °F 75.2 °F 70% 29.89 in 6.2 mi West 11.5 mph - N/A   Mostly Cloudy
1:00 PM 87 °F - 78 °F 68% 29.86 in 6 mi WNW 8.1 mph - -   Scattered Clouds
1:00 PM 86.0 °F 95.1 °F 75.2 °F 70% 29.86 in 6.2 mi WNW 11.5 mph - N/A   Mostly Cloudy
1:30 PM 86.0 °F 95.1 °F 75.2 °F 70% 29.86 in 6.2 mi West 11.5 mph - N/A   Mostly Cloudy
2:00 PM 86.0 °F 95.1 °F 75.2 °F 70% 29.83 in 6.2 mi West 11.5 mph - N/A   Mostly Cloudy
2:30 PM 86.0 °F 95.1 °F 75.2 °F 70% 29.83 in 6.2 mi West 11.5 mph - N/A   Mostly Cloudy
3:00 PM 86.0 °F 95.1 °F 75.2 °F 70% 29.83 in 6.2 mi West 11.5 mph - N/A   Mostly Cloudy
3:30 PM 86.0 °F 95.1 °F 75.2 °F 70% 29.83 in 6.2 mi West 11.5 mph - N/A   Mostly Cloudy
4:00 PM 86.0 °F 95.1 °F 75.2 °F 70% 29.80 in 6.2 mi West 12.7 mph - N/A   Mostly Cloudy
4:30 PM 86.0 °F 95.1 °F 75.2 °F 70% 29.80 in 6.2 mi West 12.7 mph - N/A   Mostly Cloudy
5:00 PM 82.4 °F 89.5 °F 75.2 °F 79% 29.80 in 6.2 mi West 12.7 mph - N/A   Mostly Cloudy
5:30 PM 82.4 °F 88.2 °F 73.4 °F 74% 29.80 in 6.2 mi West 12.7 mph - N/A   Mostly Cloudy
6:00 PM 82.4 °F 88.2 °F 73.4 °F 74% 29.83 in 6.2 mi WNW 9.2 mph - N/A   Mostly Cloudy
6:30 PM 82.4 °F 88.2 °F 73.4 °F 74% 29.83 in 6.2 mi WNW 8.1 mph - N/A   Mostly Cloudy
7:00 PM 83 °F - 74 °F 69% 29.80 in 6 mi WNW 5.8 mph - -   Partly Cloudy
7:00 PM 82.4 °F 88.2 °F 73.4 °F 74% 29.83 in 6.2 mi WNW 4.6 mph - N/A   Mostly Cloudy
7:30 PM 82.4 °F 88.2 °F 73.4 °F 74% 29.86 in 6.2 mi West 5.8 mph - N/A   Mostly Cloudy
8:00 PM 82.4 °F 88.2 °F 73.4 °F 74% 29.86 in 6.2 mi WNW 5.8 mph - N/A   Mostly Cloudy
8:30 PM 82.4 °F 88.2 °F 73.4 °F 74% 29.89 in 6.2 mi West 8.1 mph - N/A   Mostly Cloudy
9:00 PM 82.4 °F 88.2 °F 73.4 °F 74% 29.92 in 5.6 mi West 6.9 mph - N/A   Mostly Cloudy
9:30 PM 82.4 °F 89.5 °F 75.2 °F 79% 29.92 in 5.6 mi West 6.9 mph - N/A   Mostly Cloudy
10:00 PM 80.6 °F 84.6 °F 71.6 °F 74% 29.92 in 5.6 mi WSW 4.6 mph - N/A   Mostly Cloudy
10:30 PM 80.6 °F 84.6 °F 71.6 °F 74% 29.92 in 5.6 mi West 12.7 mph - N/A   Mostly Cloudy
11:00 PM 78.8 °F - 71.6 °F 78% 29.92 in 5.6 mi WNW 11.5 mph - N/A   Mostly Cloudy
11:30 PM 77.0 °F - 73.4 °F 89% 29.92 in 3.1 mi West 9.2 mph - N/A Rain Light Rain